User: anonymous   Login
Location: Pl�tzky
(52.0521°N, 11.8020°E)
Time: 22:29:32
(UTC+00:00)
Language:

Cosmos 1470 Rocket - Orbit

View from above orbital plane
View from above orbital plane
View from above satellite
View from above satellite

Ground track
Ground track

The orbit data is extracted from the following two-line orbital elements,

1 14148U 83061B   20023.49140831  .00000074  00000-0  60331-5 0  9992
2 14148  82.5191  99.4693 0023129  81.4083 289.5994 14.83326740975710
Epoch (UTC): 23 January 2020 11:47:37
Eccentricity: 0.0023129
inclination: 82.5191°
perigee height: 602 km
apogee height: 635 km
right ascension of ascending node: 99.4693°
argument of perigee: 81.4083°
revolutions per day: 14.83326740
mean anomaly at epoch: 289.5994°
orbit number at epoch: 97571

The dashed part of the orbit path shows where the satellite is in the earth's shadow,  

DLR